Year,Month,Day,Hour,Minute,Value (Times are PST for insolation in W/m^2)
2017,02,24,00,00,0.00
2017,02,24,00,01,0.00
2017,02,24,00,02,0.00
2017,02,24,00,03,0.00
2017,02,24,00,04,0.00
2017,02,24,00,05,0.00
2017,02,24,00,06,0.00
2017,02,24,00,07,0.00
2017,02,24,00,08,0.00
2017,02,24,00,09,0.00
2017,02,24,00,10,0.00
2017,02,24,00,11,0.00
2017,02,24,00,12,0.00
2017,02,24,00,13,0.00
2017,02,24,00,14,0.00
2017,02,24,00,15,0.00
2017,02,24,00,16,0.00
2017,02,24,00,17,0.00
2017,02,24,00,18,0.00
2017,02,24,00,19,0.00
2017,02,24,00,20,0.00
2017,02,24,00,21,0.00
2017,02,24,00,22,0.00
2017,02,24,00,23,0.00
2017,02,24,00,24,0.00
2017,02,24,00,25,0.00
2017,02,24,00,26,0.00
2017,02,24,00,27,0.00
2017,02,24,00,28,0.00
2017,02,24,00,29,0.00
2017,02,24,00,30,0.00
2017,02,24,00,31,0.00
2017,02,24,00,32,0.00
2017,02,24,00,33,0.00
2017,02,24,00,34,0.00
2017,02,24,00,35,0.00
2017,02,24,00,36,0.00
2017,02,24,00,37,0.00
2017,02,24,00,38,0.00
2017,02,24,00,39,0.00
2017,02,24,00,40,0.00
2017,02,24,00,41,0.00
2017,02,24,00,42,0.00
2017,02,24,00,43,0.00
2017,02,24,00,44,0.00
2017,02,24,00,45,0.00
2017,02,24,00,46,0.00
2017,02,24,00,47,0.00
2017,02,24,00,48,0.00
2017,02,24,00,49,0.00
2017,02,24,00,50,0.00
2017,02,24,00,51,0.00
2017,02,24,00,52,0.00
2017,02,24,00,53,0.00
2017,02,24,00,54,0.00
2017,02,24,00,55,0.00
2017,02,24,00,56,0.00
2017,02,24,00,57,0.00
2017,02,24,00,58,0.00
2017,02,24,00,59,0.00
2017,02,24,01,00,0.00
2017,02,24,01,01,0.00
2017,02,24,01,02,0.00
2017,02,24,01,03,0.00
2017,02,24,01,04,0.00
2017,02,24,01,05,0.00
2017,02,24,01,06,0.00
2017,02,24,01,07,0.00
2017,02,24,01,08,0.00
2017,02,24,01,09,0.00
2017,02,24,01,10,0.00
2017,02,24,01,11,0.00
2017,02,24,01,12,0.00
2017,02,24,01,13,0.00
2017,02,24,01,14,0.00
2017,02,24,01,15,0.00
2017,02,24,01,16,0.00
2017,02,24,01,17,0.00
2017,02,24,01,18,0.00
2017,02,24,01,19,0.00
2017,02,24,01,20,0.00
2017,02,24,01,21,0.00
2017,02,24,01,22,0.00
2017,02,24,01,23,0.00
2017,02,24,01,24,0.00
2017,02,24,01,25,0.00
2017,02,24,01,26,0.00
2017,02,24,01,27,0.00
2017,02,24,01,28,0.00
2017,02,24,01,29,0.00
2017,02,24,01,30,0.00
2017,02,24,01,31,0.00
2017,02,24,01,32,0.00
2017,02,24,01,33,0.00
2017,02,24,01,34,0.00
2017,02,24,01,35,0.00
2017,02,24,01,36,0.00
2017,02,24,01,37,0.00
2017,02,24,01,38,0.00
2017,02,24,01,39,0.00
2017,02,24,01,40,0.00
2017,02,24,01,41,0.00
2017,02,24,01,42,0.00
2017,02,24,01,43,0.00
2017,02,24,01,44,0.00
2017,02,24,01,45,0.00
2017,02,24,01,46,0.00
2017,02,24,01,47,0.00
2017,02,24,01,48,0.00
2017,02,24,01,49,0.00
2017,02,24,01,50,0.00
2017,02,24,01,51,0.00
2017,02,24,01,52,0.00
2017,02,24,01,53,0.00
2017,02,24,01,54,0.00
2017,02,24,01,55,0.00
2017,02,24,01,56,0.00
2017,02,24,01,57,0.00
2017,02,24,01,58,0.00
2017,02,24,01,59,0.00
2017,02,24,02,00,0.00
2017,02,24,02,01,0.00
2017,02,24,02,02,0.00
2017,02,24,02,03,0.00
2017,02,24,02,04,0.00
2017,02,24,02,05,0.00
2017,02,24,02,06,0.00
2017,02,24,02,07,0.00
2017,02,24,02,08,0.00
2017,02,24,02,09,0.00
2017,02,24,02,10,0.00
2017,02,24,02,11,0.00
2017,02,24,02,12,0.00
2017,02,24,02,13,0.00
2017,02,24,02,14,0.00
2017,02,24,02,15,0.00
2017,02,24,02,16,0.00
2017,02,24,02,17,0.00
2017,02,24,02,18,0.00
2017,02,24,02,19,0.00
2017,02,24,02,20,0.00
2017,02,24,02,21,0.00
2017,02,24,02,22,0.00
2017,02,24,02,23,0.00
2017,02,24,02,24,0.00
2017,02,24,02,25,0.00
2017,02,24,02,26,0.00
2017,02,24,02,27,0.00
2017,02,24,02,28,0.00
2017,02,24,02,29,0.00
2017,02,24,02,30,0.00
2017,02,24,02,31,0.00
2017,02,24,02,32,0.00
2017,02,24,02,33,0.00
2017,02,24,02,34,0.00
2017,02,24,02,35,0.00
2017,02,24,02,36,0.00
2017,02,24,02,37,0.00
2017,02,24,02,38,0.00
2017,02,24,02,39,0.00
2017,02,24,02,40,0.00
2017,02,24,02,41,0.00
2017,02,24,02,42,0.00
2017,02,24,02,43,0.00
2017,02,24,02,44,0.00
2017,02,24,02,45,0.00
2017,02,24,02,46,0.00
2017,02,24,02,47,0.00
2017,02,24,02,48,0.00
2017,02,24,02,49,0.00
2017,02,24,02,50,0.00
2017,02,24,02,51,0.00
2017,02,24,02,52,0.00
2017,02,24,02,53,0.00
2017,02,24,02,54,0.00
2017,02,24,02,55,0.00
2017,02,24,02,56,0.00
2017,02,24,02,57,0.00
2017,02,24,02,58,0.00
2017,02,24,02,59,0.00
2017,02,24,03,00,0.00
2017,02,24,03,01,0.00
2017,02,24,03,02,0.00
2017,02,24,03,03,0.00
2017,02,24,03,04,0.00
2017,02,24,03,05,0.00
2017,02,24,03,06,0.00
2017,02,24,03,07,0.00
2017,02,24,03,08,0.00
2017,02,24,03,09,0.00
2017,02,24,03,10,0.00
2017,02,24,03,11,0.00
2017,02,24,03,12,0.00
2017,02,24,03,13,0.00
2017,02,24,03,14,0.00
2017,02,24,03,15,0.00
2017,02,24,03,16,0.00
2017,02,24,03,17,0.00
2017,02,24,03,18,0.00
2017,02,24,03,19,0.00
2017,02,24,03,20,0.00
2017,02,24,03,21,0.00
2017,02,24,03,22,0.00
2017,02,24,03,23,0.00
2017,02,24,03,24,0.00
2017,02,24,03,25,0.00
2017,02,24,03,26,0.00
2017,02,24,03,27,0.00
2017,02,24,03,28,0.00
2017,02,24,03,29,0.00
2017,02,24,03,30,0.00
2017,02,24,03,31,0.00
2017,02,24,03,32,0.00
2017,02,24,03,33,0.00
2017,02,24,03,34,0.00
2017,02,24,03,35,0.00
2017,02,24,03,36,0.00
2017,02,24,03,37,0.00
2017,02,24,03,38,0.00
2017,02,24,03,39,0.00
2017,02,24,03,40,0.00
2017,02,24,03,41,0.00
2017,02,24,03,42,0.00
2017,02,24,03,43,0.00
2017,02,24,03,44,0.00
2017,02,24,03,45,0.00
2017,02,24,03,46,0.00
2017,02,24,03,47,0.00
2017,02,24,03,48,0.00
2017,02,24,03,49,0.00
2017,02,24,03,50,0.00
2017,02,24,03,51,0.00
2017,02,24,03,52,0.00
2017,02,24,03,53,0.00
2017,02,24,03,54,0.00
2017,02,24,03,55,0.00
2017,02,24,03,56,0.00
2017,02,24,03,57,0.00
2017,02,24,03,58,0.00
2017,02,24,03,59,0.00
2017,02,24,04,00,0.00
2017,02,24,04,01,0.00
2017,02,24,04,02,0.00
2017,02,24,04,03,0.00
2017,02,24,04,04,0.00
2017,02,24,04,05,0.00
2017,02,24,04,06,0.00
2017,02,24,04,07,0.00
2017,02,24,04,08,0.00
2017,02,24,04,09,0.00
2017,02,24,04,10,0.00
2017,02,24,04,11,0.00
2017,02,24,04,12,0.00
2017,02,24,04,13,0.00
2017,02,24,04,14,0.00
2017,02,24,04,15,0.00
2017,02,24,04,16,0.00
2017,02,24,04,17,0.00
2017,02,24,04,18,0.00
2017,02,24,04,19,0.00
2017,02,24,04,20,0.00
2017,02,24,04,21,0.00
2017,02,24,04,22,0.00
2017,02,24,04,23,0.00
2017,02,24,04,24,0.00
2017,02,24,04,25,0.00
2017,02,24,04,26,0.00
2017,02,24,04,27,0.00
2017,02,24,04,28,0.00
2017,02,24,04,29,0.00
2017,02,24,04,30,0.00
2017,02,24,04,31,0.00
2017,02,24,04,32,0.00
2017,02,24,04,33,0.00
2017,02,24,04,34,0.00
2017,02,24,04,35,0.00
2017,02,24,04,36,0.00
2017,02,24,04,37,0.00
2017,02,24,04,38,0.00
2017,02,24,04,39,0.00
2017,02,24,04,40,0.00
2017,02,24,04,41,0.00
2017,02,24,04,42,0.00
2017,02,24,04,43,0.00
2017,02,24,04,44,0.00
2017,02,24,04,45,0.00
2017,02,24,04,46,0.00
2017,02,24,04,47,0.00
2017,02,24,04,48,0.00
2017,02,24,04,49,0.00
2017,02,24,04,50,0.00
2017,02,24,04,51,0.00
2017,02,24,04,52,0.00
2017,02,24,04,53,0.00
2017,02,24,04,54,0.00
2017,02,24,04,55,0.00
2017,02,24,04,56,0.00
2017,02,24,04,57,0.00
2017,02,24,04,58,0.00
2017,02,24,04,59,0.00
2017,02,24,05,00,0.00
2017,02,24,05,01,0.00
2017,02,24,05,02,0.00
2017,02,24,05,03,0.00
2017,02,24,05,04,0.00
2017,02,24,05,05,0.00
2017,02,24,05,06,0.00
2017,02,24,05,07,0.00
2017,02,24,05,08,0.00
2017,02,24,05,09,0.00
2017,02,24,05,10,0.00
2017,02,24,05,11,0.00
2017,02,24,05,12,0.00
2017,02,24,05,13,0.00
2017,02,24,05,14,0.00
2017,02,24,05,15,0.00
2017,02,24,05,16,0.00
2017,02,24,05,17,0.00
2017,02,24,05,18,0.00
2017,02,24,05,19,0.00
2017,02,24,05,20,0.00
2017,02,24,05,21,0.00
2017,02,24,05,22,0.00
2017,02,24,05,23,0.00
2017,02,24,05,24,0.00
2017,02,24,05,25,0.00
2017,02,24,05,26,0.00
2017,02,24,05,27,0.00
2017,02,24,05,28,0.00
2017,02,24,05,29,0.00
2017,02,24,05,30,0.00
2017,02,24,05,31,0.00
2017,02,24,05,32,0.00
2017,02,24,05,33,0.00
2017,02,24,05,34,0.00
2017,02,24,05,35,0.00
2017,02,24,05,36,0.00
2017,02,24,05,37,0.00
2017,02,24,05,38,0.00
2017,02,24,05,39,0.00
2017,02,24,05,40,0.00
2017,02,24,05,41,0.00
2017,02,24,05,42,0.00
2017,02,24,05,43,0.00
2017,02,24,05,44,0.00
2017,02,24,05,45,0.00
2017,02,24,05,46,0.00
2017,02,24,05,47,0.00
2017,02,24,05,48,0.00
2017,02,24,05,49,0.00
2017,02,24,05,50,0.00
2017,02,24,05,51,0.00
2017,02,24,05,52,0.00
2017,02,24,05,53,0.00
2017,02,24,05,54,0.00
2017,02,24,05,55,0.00
2017,02,24,05,56,0.00
2017,02,24,05,57,0.00
2017,02,24,05,58,0.00
2017,02,24,05,59,0.00
2017,02,24,06,00,0.00
2017,02,24,06,01,0.00
2017,02,24,06,02,0.00
2017,02,24,06,03,0.00
2017,02,24,06,04,0.00
2017,02,24,06,05,0.00
2017,02,24,06,06,0.00
2017,02,24,06,07,0.00
2017,02,24,06,08,0.00
2017,02,24,06,09,0.00
2017,02,24,06,10,0.00
2017,02,24,06,11,0.00
2017,02,24,06,12,0.00
2017,02,24,06,13,0.00
2017,02,24,06,14,0.00
2017,02,24,06,15,0.00
2017,02,24,06,16,0.00
2017,02,24,06,17,0.00
2017,02,24,06,18,0.00
2017,02,24,06,19,0.00
2017,02,24,06,20,0.00
2017,02,24,06,21,0.00
2017,02,24,06,22,0.00
2017,02,24,06,23,0.00
2017,02,24,06,24,0.00
2017,02,24,06,25,0.00
2017,02,24,06,26,0.00
2017,02,24,06,27,0.00
2017,02,24,06,28,0.00
2017,02,24,06,29,0.00
2017,02,24,06,30,0.00
2017,02,24,06,31,0.00
2017,02,24,06,32,0.00
2017,02,24,06,33,0.00
2017,02,24,06,34,0.00
2017,02,24,06,35,0.00
2017,02,24,06,36,0.00
2017,02,24,06,37,0.00
2017,02,24,06,38,0.00
2017,02,24,06,39,0.00
2017,02,24,06,40,0.00
2017,02,24,06,41,0.00
2017,02,24,06,42,0.00
2017,02,24,06,43,0.00
2017,02,24,06,44,0.00
2017,02,24,06,45,0.00
2017,02,24,06,46,0.00
2017,02,24,06,47,0.00
2017,02,24,06,48,0.00
2017,02,24,06,49,0.00
2017,02,24,06,50,0.00
2017,02,24,06,51,0.00
2017,02,24,06,52,0.00
2017,02,24,06,53,0.00
2017,02,24,06,54,0.00
2017,02,24,06,55,0.00
2017,02,24,06,56,0.00
2017,02,24,06,57,0.00
2017,02,24,06,58,0.00
2017,02,24,06,59,0.00
2017,02,24,07,00,0.00
2017,02,24,07,01,0.00
2017,02,24,07,02,0.00
2017,02,24,07,03,0.00
2017,02,24,07,04,0.00
2017,02,24,07,05,0.00
2017,02,24,07,06,0.00
2017,02,24,07,07,0.00
2017,02,24,07,08,0.00
2017,02,24,07,09,0.00
2017,02,24,07,10,0.00
2017,02,24,07,11,0.00
2017,02,24,07,12,0.00
2017,02,24,07,13,0.00
2017,02,24,07,14,0.00
2017,02,24,07,15,0.00
2017,02,24,07,16,0.00
2017,02,24,07,17,2.50
2017,02,24,07,18,5.00
2017,02,24,07,19,5.00
2017,02,24,07,20,5.00
2017,02,24,07,21,5.00
2017,02,24,07,22,5.00
2017,02,24,07,23,5.00
2017,02,24,07,24,5.00
2017,02,24,07,25,7.00
2017,02,24,07,26,7.00
2017,02,24,07,27,7.00
2017,02,24,07,28,7.00
2017,02,24,07,29,7.00
2017,02,24,07,30,7.00
2017,02,24,07,31,7.00
2017,02,24,07,32,7.00
2017,02,24,07,33,7.00
2017,02,24,07,34,8.20
2017,02,24,07,35,9.00
2017,02,24,07,36,9.00
2017,02,24,07,37,9.00
2017,02,24,07,38,9.00
2017,02,24,07,39,10.80
2017,02,24,07,40,11.00
2017,02,24,07,41,11.00
2017,02,24,07,42,11.00
2017,02,24,07,43,11.20
2017,02,24,07,44,12.00
2017,02,24,07,45,12.00
2017,02,24,07,46,12.00
2017,02,24,07,47,12.00
2017,02,24,07,48,12.00
2017,02,24,07,49,12.00
2017,02,24,07,50,12.00
2017,02,24,07,51,13.50
2017,02,24,07,52,14.00
2017,02,24,07,53,14.00
2017,02,24,07,54,14.00
2017,02,24,07,55,14.00
2017,02,24,07,56,14.00
2017,02,24,07,57,14.00
2017,02,24,07,58,14.00
2017,02,24,07,59,14.60
2017,02,24,08,00,16.00
2017,02,24,08,01,16.90
2017,02,24,08,02,18.00
2017,02,24,08,03,18.00
2017,02,24,08,04,18.00
2017,02,24,08,05,18.00
2017,02,24,08,06,18.00
2017,02,24,08,07,18.80
2017,02,24,08,08,19.00
2017,02,24,08,09,19.00
2017,02,24,08,10,19.00
2017,02,24,08,11,19.00
2017,02,24,08,12,19.80
2017,02,24,08,13,23.00
2017,02,24,08,14,23.60
2017,02,24,08,15,25.40
2017,02,24,08,16,26.00
2017,02,24,08,17,27.00
2017,02,24,08,18,28.00
2017,02,24,08,19,28.00
2017,02,24,08,20,29.30
2017,02,24,08,21,30.00
2017,02,24,08,22,31.60
2017,02,24,08,23,32.90
2017,02,24,08,24,36.80
2017,02,24,08,25,38.90
2017,02,24,08,26,38.70
2017,02,24,08,27,36.60
2017,02,24,08,28,35.00
2017,02,24,08,29,36.30
2017,02,24,08,30,39.40
2017,02,24,08,31,40.00
2017,02,24,08,32,40.00
2017,02,24,08,33,41.10
2017,02,24,08,34,46.30
2017,02,24,08,35,51.70
2017,02,24,08,36,56.80
2017,02,24,08,37,61.20
2017,02,24,08,38,62.00
2017,02,24,08,39,60.10
2017,02,24,08,40,57.90
2017,02,24,08,41,56.00
2017,02,24,08,42,55.60
2017,02,24,08,43,54.00
2017,02,24,08,44,54.00
2017,02,24,08,45,55.50
2017,02,24,08,46,58.00
2017,02,24,08,47,59.00
2017,02,24,08,48,60.00
2017,02,24,08,49,60.00
2017,02,24,08,50,61.30
2017,02,24,08,51,62.00
2017,02,24,08,52,62.80
2017,02,24,08,53,62.10
2017,02,24,08,54,63.00
2017,02,24,08,55,62.00
2017,02,24,08,56,63.00
2017,02,24,08,57,62.80
2017,02,24,08,58,61.00
2017,02,24,08,59,57.40
2017,02,24,09,00,55.20
2017,02,24,09,01,53.60
2017,02,24,09,02,55.50
2017,02,24,09,03,59.10
2017,02,24,09,04,60.00
2017,02,24,09,05,62.00
2017,02,24,09,06,60.70
2017,02,24,09,07,60.00
2017,02,24,09,08,60.00
2017,02,24,09,09,60.00
2017,02,24,09,10,63.10
2017,02,24,09,11,66.00
2017,02,24,09,12,73.00
2017,02,24,09,13,78.00
2017,02,24,09,14,83.20
2017,02,24,09,15,94.50
2017,02,24,09,16,110.60
2017,02,24,09,17,118.00
2017,02,24,09,18,114.00
2017,02,24,09,19,117.20
2017,02,24,09,20,146.20
2017,02,24,09,21,161.00
2017,02,24,09,22,171.70
2017,02,24,09,23,204.20
2017,02,24,09,24,213.80
2017,02,24,09,25,204.50
2017,02,24,09,26,222.20
2017,02,24,09,27,262.40
2017,02,24,09,28,200.90
2017,02,24,09,29,162.00
2017,02,24,09,30,165.80
2017,02,24,09,31,170.70
2017,02,24,09,32,172.50
2017,02,24,09,33,176.00
2017,02,24,09,34,306.60
2017,02,24,09,35,357.00
2017,02,24,09,36,343.00
2017,02,24,09,37,343.00
2017,02,24,09,38,343.00
2017,02,24,09,39,203.90
2017,02,24,09,40,192.80
2017,02,24,09,41,188.00
2017,02,24,09,42,233.10
2017,02,24,09,43,426.70
2017,02,24,09,44,407.50
2017,02,24,09,45,355.00
2017,02,24,09,46,263.30
2017,02,24,09,47,141.00
2017,02,24,09,48,141.00
2017,02,24,09,49,128.00
2017,02,24,09,50,124.70
2017,02,24,09,51,132.80
2017,02,24,09,52,135.00
2017,02,24,09,53,135.00
2017,02,24,09,54,156.90
2017,02,24,09,55,162.20
2017,02,24,09,56,167.50
2017,02,24,09,57,172.00
2017,02,24,09,58,176.70
2017,02,24,09,59,180.10
2017,02,24,10,00,184.10
2017,02,24,10,01,186.90
2017,02,24,10,02,189.00
2017,02,24,10,03,190.00
2017,02,24,10,04,191.20
2017,02,24,10,05,196.70
2017,02,24,10,06,201.20
2017,02,24,10,07,206.00
2017,02,24,10,08,214.70
2017,02,24,10,09,222.40
2017,02,24,10,10,229.00
2017,02,24,10,11,230.00
2017,02,24,10,12,230.40
2017,02,24,10,13,233.00
2017,02,24,10,14,237.40
2017,02,24,10,15,242.10
2017,02,24,10,16,245.70
2017,02,24,10,17,247.00
2017,02,24,10,18,242.00
2017,02,24,10,19,231.60
2017,02,24,10,20,218.10
2017,02,24,10,21,206.40
2017,02,24,10,22,196.70
2017,02,24,10,23,189.00
2017,02,24,10,24,185.30
2017,02,24,10,25,184.90
2017,02,24,10,26,182.70
2017,02,24,10,27,180.00
2017,02,24,10,28,174.30
2017,02,24,10,29,169.00
2017,02,24,10,30,165.00
2017,02,24,10,31,157.10
2017,02,24,10,32,154.50
2017,02,24,10,33,150.10
2017,02,24,10,34,148.00
2017,02,24,10,35,150.00
2017,02,24,10,36,151.00
2017,02,24,10,37,154.20
2017,02,24,10,38,155.90
2017,02,24,10,39,162.40
2017,02,24,10,40,168.70
2017,02,24,10,41,171.30
2017,02,24,10,42,187.70
2017,02,24,10,43,196.00
2017,02,24,10,44,199.00
2017,02,24,10,45,197.50
2017,02,24,10,46,193.70
2017,02,24,10,47,192.00
2017,02,24,10,48,193.60
2017,02,24,10,49,199.30
2017,02,24,10,50,208.00
2017,02,24,10,51,218.30
2017,02,24,10,52,227.50
2017,02,24,10,53,231.60
2017,02,24,10,54,243.40
2017,02,24,10,55,251.50
2017,02,24,10,56,263.60
2017,02,24,10,57,278.50
2017,02,24,10,58,272.20
2017,02,24,10,59,269.50
2017,02,24,11,00,306.80
2017,02,24,11,01,314.30
2017,02,24,11,02,290.00
2017,02,24,11,03,296.00
2017,02,24,11,04,306.40
2017,02,24,11,05,301.70
2017,02,24,11,06,278.80
2017,02,24,11,07,266.30
2017,02,24,11,08,289.90
2017,02,24,11,09,344.90
2017,02,24,11,10,308.00
2017,02,24,11,11,307.60
2017,02,24,11,12,304.00
2017,02,24,11,13,304.50
2017,02,24,11,14,302.50
2017,02,24,11,15,308.30
2017,02,24,11,16,327.90
2017,02,24,11,17,336.50
2017,02,24,11,18,309.70
2017,02,24,11,19,282.20
2017,02,24,11,20,275.00
2017,02,24,11,21,266.60
2017,02,24,11,22,255.30
2017,02,24,11,23,253.00
2017,02,24,11,24,253.00
2017,02,24,11,25,251.30
2017,02,24,11,26,258.70
2017,02,24,11,27,265.00
2017,02,24,11,28,265.00
2017,02,24,11,29,270.70
2017,02,24,11,30,278.80
2017,02,24,11,31,272.00
2017,02,24,11,32,272.00
2017,02,24,11,33,273.10
2017,02,24,11,34,272.80
2017,02,24,11,35,270.00
2017,02,24,11,36,265.20
2017,02,24,11,37,259.10
2017,02,24,11,38,253.70
2017,02,24,11,39,246.60
2017,02,24,11,40,242.90
2017,02,24,11,41,241.00
2017,02,24,11,42,240.60
2017,02,24,11,43,239.00
2017,02,24,11,44,238.40
2017,02,24,11,45,237.70
2017,02,24,11,46,239.90
2017,02,24,11,47,241.00
2017,02,24,11,48,250.70
2017,02,24,11,49,267.90
2017,02,24,11,50,264.50
2017,02,24,11,51,258.50
2017,02,24,11,52,254.00
2017,02,24,11,53,271.00
2017,02,24,11,54,244.00
2017,02,24,11,55,229.40
2017,02,24,11,56,217.10
2017,02,24,11,57,208.50
2017,02,24,11,58,206.20
2017,02,24,11,59,208.10
2017,02,24,12,00,212.80
2017,02,24,12,01,219.90
2017,02,24,12,02,231.70
2017,02,24,12,03,248.80
2017,02,24,12,04,257.00
2017,02,24,12,05,259.00
2017,02,24,12,06,265.30
2017,02,24,12,07,274.30
2017,02,24,12,08,260.60
2017,02,24,12,09,255.30
2017,02,24,12,10,245.80
2017,02,24,12,11,240.00
2017,02,24,12,12,233.20
2017,02,24,12,13,230.00
2017,02,24,12,14,229.70
2017,02,24,12,15,229.40
2017,02,24,12,16,234.70
2017,02,24,12,17,241.00
2017,02,24,12,18,262.10
2017,02,24,12,19,291.00
2017,02,24,12,20,299.00
2017,02,24,12,21,299.00
2017,02,24,12,22,316.00
2017,02,24,12,23,333.70
2017,02,24,12,24,304.20
2017,02,24,12,25,267.80
2017,02,24,12,26,242.40
2017,02,24,12,27,225.70
2017,02,24,12,28,219.50
2017,02,24,12,29,218.60
2017,02,24,12,30,221.90
2017,02,24,12,31,228.90
2017,02,24,12,32,245.00
2017,02,24,12,33,270.10
2017,02,24,12,34,281.00
2017,02,24,12,35,281.00
2017,02,24,12,36,277.40
2017,02,24,12,37,304.30
2017,02,24,12,38,312.70
2017,02,24,12,39,286.30
2017,02,24,12,40,287.00
2017,02,24,12,41,327.00
2017,02,24,12,42,327.00
2017,02,24,12,43,324.90
2017,02,24,12,44,325.70
2017,02,24,12,45,345.00
2017,02,24,12,46,297.40
2017,02,24,12,47,224.00
2017,02,24,12,48,215.70
2017,02,24,12,49,225.40
2017,02,24,12,50,232.70
2017,02,24,12,51,234.00
2017,02,24,12,52,236.40
2017,02,24,12,53,237.00
2017,02,24,12,54,242.50
2017,02,24,12,55,248.30
2017,02,24,12,56,255.30
2017,02,24,12,57,258.70
2017,02,24,12,58,262.00
2017,02,24,12,59,262.60
2017,02,24,13,00,263.30
2017,02,24,13,01,261.10
2017,02,24,13,02,259.00
2017,02,24,13,03,256.40
2017,02,24,13,04,252.50
2017,02,24,13,05,249.00
2017,02,24,13,06,244.40
2017,02,24,13,07,238.10
2017,02,24,13,08,234.40
2017,02,24,13,09,234.00
2017,02,24,13,10,234.00
2017,02,24,13,11,234.00
2017,02,24,13,12,234.00
2017,02,24,13,13,234.00
2017,02,24,13,14,241.20
2017,02,24,13,15,265.10
2017,02,24,13,16,268.70
2017,02,24,13,17,272.40
2017,02,24,13,18,274.00
2017,02,24,13,19,275.20
2017,02,24,13,20,276.00
2017,02,24,13,21,284.00
2017,02,24,13,22,309.70
2017,02,24,13,23,313.30
2017,02,24,13,24,298.50
2017,02,24,13,25,281.00
2017,02,24,13,26,280.50
2017,02,24,13,27,276.40
2017,02,24,13,28,282.00
2017,02,24,13,29,293.40
2017,02,24,13,30,285.40
2017,02,24,13,31,274.10
2017,02,24,13,32,264.70
2017,02,24,13,33,256.20
2017,02,24,13,34,253.00
2017,02,24,13,35,241.40
2017,02,24,13,36,227.60
2017,02,24,13,37,217.70
2017,02,24,13,38,208.30
2017,02,24,13,39,200.60
2017,02,24,13,40,194.90
2017,02,24,13,41,192.90
2017,02,24,13,42,192.00
2017,02,24,13,43,192.00
2017,02,24,13,44,192.00
2017,02,24,13,45,192.00
2017,02,24,13,46,192.00
2017,02,24,13,47,199.10
2017,02,24,13,48,210.80
2017,02,24,13,49,219.60
2017,02,24,13,50,227.70
2017,02,24,13,51,234.40
2017,02,24,13,52,238.40
2017,02,24,13,53,237.30
2017,02,24,13,54,232.50
2017,02,24,13,55,224.70
2017,02,24,13,56,217.60
2017,02,24,13,57,213.80
2017,02,24,13,58,212.50
2017,02,24,13,59,211.00
2017,02,24,14,00,211.00
2017,02,24,14,01,211.90
2017,02,24,14,02,213.50
2017,02,24,14,03,216.20
2017,02,24,14,04,219.30
2017,02,24,14,05,220.00
2017,02,24,14,06,218.50
2017,02,24,14,07,216.40
2017,02,24,14,08,214.30
2017,02,24,14,09,211.10
2017,02,24,14,10,206.90
2017,02,24,14,11,203.50
2017,02,24,14,12,198.30
2017,02,24,14,13,194.30
2017,02,24,14,14,191.40
2017,02,24,14,15,189.20
2017,02,24,14,16,187.10
2017,02,24,14,17,186.00
2017,02,24,14,18,186.00
2017,02,24,14,19,185.40
2017,02,24,14,20,183.60
2017,02,24,14,21,180.00
2017,02,24,14,22,178.10
2017,02,24,14,23,174.50
2017,02,24,14,24,171.10
2017,02,24,14,25,164.90
2017,02,24,14,26,161.70
2017,02,24,14,27,159.60
2017,02,24,14,28,158.50
2017,02,24,14,29,160.00
2017,02,24,14,30,160.00
2017,02,24,14,31,161.30
2017,02,24,14,32,164.00
2017,02,24,14,33,166.10
2017,02,24,14,34,169.50
2017,02,24,14,35,173.00
2017,02,24,14,36,177.80
2017,02,24,14,37,184.90
2017,02,24,14,38,192.00
2017,02,24,14,39,203.00
2017,02,24,14,40,207.10
2017,02,24,14,41,208.70
2017,02,24,14,42,204.90
2017,02,24,14,43,199.30
2017,02,24,14,44,195.60
2017,02,24,14,45,189.80
2017,02,24,14,46,184.70
2017,02,24,14,47,182.00
2017,02,24,14,48,179.30
2017,02,24,14,49,175.40
2017,02,24,14,50,172.00
2017,02,24,14,51,168.10
2017,02,24,14,52,168.50
2017,02,24,14,53,173.30
2017,02,24,14,54,177.80
2017,02,24,14,55,183.00
2017,02,24,14,56,183.00
2017,02,24,14,57,183.00
2017,02,24,14,58,183.00
2017,02,24,14,59,183.90
2017,02,24,15,00,187.50
2017,02,24,15,01,191.40
2017,02,24,15,02,194.90
2017,02,24,15,03,198.10
2017,02,24,15,04,199.00
2017,02,24,15,05,199.00
2017,02,24,15,06,196.10
2017,02,24,15,07,192.60
2017,02,24,15,08,188.60
2017,02,24,15,09,185.30
2017,02,24,15,10,180.80
2017,02,24,15,11,175.30
2017,02,24,15,12,167.70
2017,02,24,15,13,159.90
2017,02,24,15,14,151.60
2017,02,24,15,15,146.50
2017,02,24,15,16,141.90
2017,02,24,15,17,137.10
2017,02,24,15,18,133.40
2017,02,24,15,19,130.80
2017,02,24,15,20,128.70
2017,02,24,15,21,128.00
2017,02,24,15,22,128.00
2017,02,24,15,23,129.70
2017,02,24,15,24,131.80
2017,02,24,15,25,134.00
2017,02,24,15,26,135.00
2017,02,24,15,27,134.90
2017,02,24,15,28,133.50
2017,02,24,15,29,130.90
2017,02,24,15,30,127.60
2017,02,24,15,31,126.10
2017,02,24,15,32,124.00
2017,02,24,15,33,123.00
2017,02,24,15,34,123.00
2017,02,24,15,35,123.00
2017,02,24,15,36,123.00
2017,02,24,15,37,121.40
2017,02,24,15,38,121.00
2017,02,24,15,39,120.10
2017,02,24,15,40,117.90
2017,02,24,15,41,115.80
2017,02,24,15,42,113.80
2017,02,24,15,43,112.50
2017,02,24,15,44,111.00
2017,02,24,15,45,109.50
2017,02,24,15,46,107.90
2017,02,24,15,47,110.00
2017,02,24,15,48,112.10
2017,02,24,15,49,111.80
2017,02,24,15,50,108.30
2017,02,24,15,51,107.00
2017,02,24,15,52,108.60
2017,02,24,15,53,109.00
2017,02,24,15,54,105.40
2017,02,24,15,55,101.80
2017,02,24,15,56,98.00
2017,02,24,15,57,98.00
2017,02,24,15,58,97.30
2017,02,24,15,59,94.40
2017,02,24,16,00,92.30
2017,02,24,16,01,92.80
2017,02,24,16,02,96.40
2017,02,24,16,03,98.00
2017,02,24,16,04,97.40
2017,02,24,16,05,97.00
2017,02,24,16,06,97.70
2017,02,24,16,07,99.60
2017,02,24,16,08,98.30
2017,02,24,16,09,95.30
2017,02,24,16,10,91.00
2017,02,24,16,11,90.00
2017,02,24,16,12,90.20
2017,02,24,16,13,91.00
2017,02,24,16,14,90.70
2017,02,24,16,15,90.40
2017,02,24,16,16,91.00
2017,02,24,16,17,91.00
2017,02,24,16,18,91.00
2017,02,24,16,19,91.00
2017,02,24,16,20,92.30
2017,02,24,16,21,94.50
2017,02,24,16,22,95.00
2017,02,24,16,23,93.30
2017,02,24,16,24,93.00
2017,02,24,16,25,91.00
2017,02,24,16,26,91.00
2017,02,24,16,27,91.40
2017,02,24,16,28,93.50
2017,02,24,16,29,95.00
2017,02,24,16,30,95.00
2017,02,24,16,31,94.10
2017,02,24,16,32,93.00
2017,02,24,16,33,90.30
2017,02,24,16,34,84.90
2017,02,24,16,35,79.00
2017,02,24,16,36,74.80
2017,02,24,16,37,70.80
2017,02,24,16,38,69.10
2017,02,24,16,39,67.20
2017,02,24,16,40,63.00
2017,02,24,16,41,62.90
2017,02,24,16,42,61.60
2017,02,24,16,43,59.00
2017,02,24,16,44,55.40
2017,02,24,16,45,53.60
2017,02,24,16,46,51.30
2017,02,24,16,47,48.00
2017,02,24,16,48,46.50
2017,02,24,16,49,43.50
2017,02,24,16,50,40.70
2017,02,24,16,51,39.30
2017,02,24,16,52,37.40
2017,02,24,16,53,35.30
2017,02,24,16,54,33.20
2017,02,24,16,55,33.00
2017,02,24,16,56,32.90
2017,02,24,16,57,31.60
2017,02,24,16,58,30.00
2017,02,24,16,59,30.00
2017,02,24,17,00,30.00
2017,02,24,17,01,29.10
2017,02,24,17,02,28.00
2017,02,24,17,03,28.00
2017,02,24,17,04,28.00
2017,02,24,17,05,26.70
2017,02,24,17,06,26.00
2017,02,24,17,07,26.00
2017,02,24,17,08,26.00
2017,02,24,17,09,26.00
2017,02,24,17,10,27.90
2017,02,24,17,11,25.90
2017,02,24,17,12,25.00
2017,02,24,17,13,25.00
2017,02,24,17,14,24.40
2017,02,24,17,15,23.00
2017,02,24,17,16,23.00
2017,02,24,17,17,23.00
2017,02,24,17,18,23.00
2017,02,24,17,19,21.80
2017,02,24,17,20,21.00
2017,02,24,17,21,21.00